Regional Weather Roundup
Issued by NWS Sterling, VA

Home | Current Version | Previous Version | Text Only | Print | Product List | Glossary Off
Versions: 1 2 3 4 5 6 7 8 9 10 11 12 13 14 15 16 17 18 19 20 21 22 23 24 25 26 27

000
ASUS41 KLWX 261010
RWRLWX

REGIONAL WEATHER ROUNDUP
NATIONAL WEATHER SERVICE BALTIMORE MD/WASHINGTON DC
600 AM EDT THU MAY 26 2016

Note: "FAIR" indicates few or no clouds below 12,000 feet
with no significant weather and/or obstructions to visibility.
 TC=TEMPERATURE CELSIUS

 * =Non NWS site. Station does not report precipitation (e.g. rain,
    snow, etc.), thunder, or fog.

DCZ001-MDZ009-015-VAZ040>042-051-053>054-261100-
WASHINGTON METRO

CITY           SKY/WX    TMP DP  RH WIND       PRES   REMARKS
WASHINGTON NAT MOCLDY    63  61  93 CALM      30.12S
DULLES         MOCLDY    57  55  93 CALM      30.12S
ANDREWS AFB    CLEAR     63  56  78 S3        30.11S
FT BELVOIR     FAIR      56  55  96 CALM      30.12R FOG
QUANTICO       MOCLDY    60  58  92 NW3       30.13R
COLLEGE PARK*  FAIR      55  54  94 CALM      30.12R
LEESBURG*      FAIR      59  59 100 CALM      30.13S
MANASSAS*      FAIR      55  55 100 CALM      30.12S

$$

MDZ006>007-011-014-261100-
BALTIMORE METRO

CITY           SKY/WX    TMP DP  RH WIND       PRES   REMARKS
BWI AIRPORT    MOCLDY    58  55  90 CALM      30.12R
MD SCIENCE CTR   N/A     65  56  72 MISG      30.12R
MARTIN STATE   PTCLDY    59  59 100 CALM      30.13R
ANNAPOLIS      CLEAR     61  59  93 CALM      30.11R FOG
FORT MEADE*    CLEAR     52  52 100 CALM      30.14R

$$

MDZ012-015-019>023-261100-
MARYLAND EASTERN SHORE

CITY           SKY/WX    TMP DP  RH WIND       PRES   REMARKS
OCEAN CITY     CLEAR     58  56  93 CALM      30.14R
SALISBURY      CLEAR     60  57  89 CALM      30.14R
CAMBRIDGE*       N/A     59  57  94 SE3       30.12S
EASTON*        PTCLDY    62  62  99 CALM      30.16R

$$

MDZ017>025-261100-
SOUTHERN MARYLAND

CITY           SKY/WX    TMP DP  RH WIND       PRES   REMARKS
PATUXENT RIVER MOCLDY    65  57  75 SW3       30.13R
ST INIGOES     CLEAR     59  58  96 CALM      30.13R
LEONARDTOWN*   CLEAR     61  55  82 CALM      30.14S

$$

MDZ003>005-261100-
NORTH CENTRAL MARYLAND

CITY           SKY/WX    TMP DP  RH WIND       PRES   REMARKS
FREDERICK*     CLOUDY    55  55 100 CALM      30.15R FOG
HAGERSTOWN APT PTCLDY    63  54  72 SE3       30.12R
WESTMINSTER*   CLOUDY    63  59  88 CALM      30.13S

$$

MDZ501>502-261100-
WESTERN MARYLAND

CITY           SKY/WX    TMP DP  RH WIND       PRES   REMARKS
OAKLAND*       PTCLDY    61  50  67 S6        30.20S
CUMBERLAND*    PTCLDY    57  55  94 CALM      30.18S

$$

VAZ025>031-261100-
SHENANDOAH VALLEY

CITY           SKY/WX    TMP DP  RH WIND       PRES   REMARKS
WINCHESTER*    CLOUDY    63  55  77 CALM      30.13R
FRONT ROYAL*   CLOUDY    63  55  77 S5        30.12S
LURAY*         CLOUDY    59  59 100 CALM      30.14S
NEW MARKET*    CLOUDY    59  57  93 CALM      30.15R
STAUNTON*      CLOUDY    58  57  96 CALM      30.18S
WAYNESBORO*    CLOUDY    60  56  85 CALM      30.17S

$$

WVZ021-048>050-054>055-261100-
EASTERN WEST VIRGINIA PANHANDLE

CITY           SKY/WX    TMP DP  RH WIND       PRES   REMARKS
MARTINSBURG    CLOUDY    60  57  89 CALM      30.12R
PETERSBURG*    FAIR      58  57  97 CALM      30.16S

$$

VAZ036>039-050-261100-
CENTRAL FOOTHILLS

CITY           SKY/WX    TMP DP  RH WIND       PRES   REMARKS
CHARLOTTESVILL MOCLDY    63  57  81 CALM      30.13R
CULPEPER*      FAIR      57  57  99 CALM      30.13S FOG
ORANGE*        CLOUDY    61  61 100 CALM      30.14S
GORDONSVILLE*  CLOUDY    60  59  97 CALM      30.12S
WARRENTON*     FAIR      56  52  85 CALM      30.12R FOG

$$

VAZ055>057-261100-
NORTH AND CENTRAL PIEDMONT

CITY           SKY/WX    TMP DP  RH WIND       PRES   REMARKS
FREDERICKSBRG* NOT AVBL
STAFFORD*      FAIR      53  52  96 CALM      30.16R FOG

$$

NCZ024-NYZ072-PAZ021-071-VAZ022-071-261100-
OTHER REGIONAL OBSERVATIONS

CITY           SKY/WX    TMP DP  RH WIND       PRES   REMARKS
NEW YORK CITY  CLEAR     70  49  47 W3        30.12R
PHILADELPHIA   CLOUDY    64  55  72 W6        30.12R
PITTSBURGH     CLOUDY    67  55  65 S5        30.10S
ROANOKE        CLOUDY    67  59  75 W3        30.19R
RICHMOND       FAIR      61  58  90 CALM      30.14R
RALEIGH        MOCLDY    66  61  84 CALM      30.18R

$$

ANZ530>537-261100-
MARINE OBSERVATIONS

STATION/POSITION TIME  TEMP    WIND        PRES
                       AIR SEA DIR/SP/G
                 (UTC) (F)     (DEG/KT/KT) (MB)
THOMAS PT LIGHT  1000   66 62  190/  5/  5 1021.2R
BALT KEY BRIDGE  0900   66      CALM  /  1 1019.4R
COVE POINT       0900   67     200/  4/  6 1020.2R
LEWISETTA        0900   68 69  230/  8/ 10 1019.6R
SOLOMONS ISLAND  0900   63 65  320/  1/  2   N/A
PINEY POINT      0900          170/  3/  3   N/A

$$





USA.gov is the U.S. government's official web portal to all federal, state and local government web resources and services.